CZ-3B DEB, 40191

Orbit data source: Space-Track

CZ-3B DEB, 40191 is space debris in HEO originally from a launch on Mon, 19 Dec 2011 UTC launched from the Xichang Space Center, China (XSC). Debris objects in space refer to the collection of defunct objects orbiting the Earth. Examples of debris include non-operational satellites, rocket bodies, and fragments generated from explosions, collisions, or faulty payload assembly.

Loading next visibility...
Identifier
40191, 2011-077Q
Orbit
HEO
Country
Flag of CNCN / PRC
Related business
Manufacturer
CALT
Mission
Spacecraft
Bus & Motor
Unknown
Mass
Unknown
Launch date (UTC)
2011-12-19 (14 years ago)
Launch vehicle
Unknown
Launch site
Xichang Space Center, China (XSC)
Object type
Payload
Rocket body
Debris
Shape & HBR
Unknown shape, 0.2 m
Radar Cross Section
Medium (>0.1 m² and <1 m²)

Expand to show TLE details & history
Last TLE update: 5 days ago

TLE from 5 days ago
0 CZ-3B DEB
1 40191U 11077Q   26119.54120867  .00000528  00000-0  57693-2 0  9990
2 40191  26.4286 264.7926 7450151 182.1505 170.3941  1.95064977 78846
Epoch: 2026-04-29T12:59Z
TLE epoch observation values (Epoch: 2026-04-29T12:59:20.429Z)
Latitude
0.00007°
Longitude
-147.56694°
Altitude
40,730.419 km
Speed
1.48 km/s
True Right ascension
17h 39m 04s
True Declination
0° 00' 00"
Sunlit
Object was in daylight at epoch
Visualization orbit readout
Latitude
Unknown
Longitude
Unknown
Altitude
Unknown
Speed
Unknown
Apparent Right ascension
Unknown
Apparent Declination
Unknown
Sunlit
N/A
Visualization observer readout
Local Sidereal Time
03:27:53
Azimuth
Unknown
Elevation
Unknown
Doppler factor
Unknown
Orbital elements
Apogee altitude
40,843.782 km
Perigee altitude
522.019 km
Semi-major axis
27,061.038 km
Eccentricity
0.74502
Inclination
26.4286°
RAAN
264.7926°
Arg. of periapsis
182.1505°
True anomaly
177.89298°
Mean anomaly
170.3941°
Eccentric anomaly
174.49161°
Mean motion
0.48756 °/min
Orbital period
738.37 mins
BSTAR
0.0057693
Loading maneuver chart data...
Computing Atmospheric mass density...
Loading historical data...
Loading historical data...
Loading historical data...
Loading historical data...
Loading historical data...
Loading historical data...
Loading historical data...

Documentation

Showing up to 5 results
|